Terminal Aerodrome Forecast
Issued by NWS Cleveland, OH

Home | Current Version | Previous Version | Text Only | Print | Product List | Glossary Off
Versions: 1 2 3 4 5 6 7 8 9 10 11 12 13 14 15 16 17 18 19 20 21 22 23 24 25 26 27 28 29 30 31 32 33 34 35 36

000
FTUS41 KCLE 190500
TAFCLE
TAF
KCLE 190520Z 1906/2012 35012G18KT P6SM BKN025 OVC045
      TEMPO 1906/1910 SCT025 BKN045
     FM191000 31009KT P6SM SCT045
      TEMPO 1910/1914 BKN045
     FM191600 29008KT P6SM SCT250
     FM192000 24008KT P6SM SCT250
     FM200000 20006KT P6SM BKN250
     FM200600 20008KT P6SM OVC250=

USA.gov is the U.S. government's official web portal to all federal, state and local government web resources and services.